WB5MTX Weather Reports


Display with metric or nautical units.
time (UTC)temp
F
wind
direction
speed
MPH
gust
MPH
rain 1hr
in
rain 24hr
in
rain mn
in
humidity
%
barometer
mb
20260902224609 100 0 0.0 9.0 0.00 0.00 0.00 35 1011.2
20260902223119 100 0 0.0 7.0 0.00 0.00 0.00 36 1011.3
20260902221607 101 0 0.0 7.0 0.00 0.00 0.00 35 1011.4
20260902220108 100 0 0.0 6.0 0.00 0.00 0.00 37 1011.5
20260902214601 100 0 0.0 6.0 0.00 0.00 0.00 37 1011.6
20260902213111 101 135 0.0 2.0 0.00 0.00 0.00 36 1011.7
20260902211608 100 0 0.0 5.0 0.00 0.00 0.00 37 1011.8
20260902210104 101 0 0.0 3.0 0.00 0.00 0.00 36 1012.0
20260902204609 101 103 0.0 6.0 0.00 0.00 0.00 36 1012.1
20260902203101 101 0 0.0 5.0 0.00 0.00 0.00 37 1012.3
20260902201558 102 0 0.0 6.0 0.00 0.00 0.00 34 1012.5
20260902200059 102 0 0.0 1.0 0.00 0.00 0.00 37 1012.7
20260902194558 101 0 0.0 10.0 0.00 0.00 0.00 36 1013.1
20260902193108 101 0 0.0 3.0 0.00 0.00 0.00 37 1013.2
20260902191605 98 0 0.0 8.0 0.00 0.00 0.00 39 1013.7
20260902190108 97 0 0.0 10.0 0.00 0.00 0.00 41 1013.9
20260902184658 98 0 1.0 13.0 0.00 0.00 0.00 41 1013.9
20260902183121 99 0 0.0 4.0 0.00 0.00 0.00 39 1014.1
20260902181605 99 112 0.0 0.0 0.00 0.00 0.00 43 1014.5
20260902180105 97 0 0.0 5.0 0.00 0.00 0.00 45 1014.8
20260902174606 97 0 0.0 4.0 0.00 0.00 0.00 44 1015.0
20260902173059 97 138 1.0 6.0 0.00 0.00 0.00 41 1015.2
20260902171606 96 0 0.0 8.0 0.00 0.00 0.00 42 1015.5
20260902164603 95 0 0.0 0.0 0.00 0.00 0.00 44 1015.6
20260902163103 94 0 0.0 4.0 0.00 0.00 0.00 48 1015.9
20260902161608 92 0 0.0 7.0 0.00 0.00 0.00 49 1015.9
20260902154600 91 114 0.0 4.0 0.00 0.00 0.00 53 1016.0
20260902153109 90 0 0.0 4.0 0.00 0.00 0.00 55 1015.9
20260902151609 89 0 0.0 0.0 0.00 0.00 0.00 58 1016.0
20260902150106 87 0 0.0 4.0 0.00 0.00 0.00 60 1016.0
20260902144619 86 0 1.0 6.0 0.00 0.00 0.00 62 1015.9
20260902143104 85 97 0.0 7.0 0.00 0.00 0.00 64 1016.0
20260902141611 84 0 0.0 8.0 0.00 0.00 0.00 65 1016.1
20260902140104 84 0 0.0 6.0 0.00 0.00 0.00 66 1016.1
20260902134612 82 0 0.0 4.0 0.00 0.00 0.00 70 1016.1
20260902133109 80 0 0.0 0.0 0.00 0.00 0.00 73 1016.0
20260902131603 78 0 0.0 0.0 0.00 0.00 0.00 75 1016.0
20260902124616 77 0 0.0 0.0 0.00 0.00 0.00 77 1015.7
20260902123124 77 0 0.0 0.0 0.00 0.00 0.00 77 1015.6
20260902121608 77 0 0.0 0.0 0.00 0.00 0.00 78 1015.3
20260902120104 77 0 0.0 0.0 0.00 0.00 0.00 77 1015.2
20260902114605 77 0 0.0 0.0 0.00 0.00 0.00 77 1015.4
20260902113111 77 0 0.0 0.0 0.00 0.00 0.00 79 1015.5
20260902111559 77 0 0.0 0.0 0.00 0.00 0.00 78 1015.5
20260902110105 77 0 0.0 0.0 0.00 0.00 0.00 77 1015.3
20260902104600 77 0 0.0 0.0 0.00 0.00 0.00 77 1015.3
20260902103108 78 0 0.0 0.0 0.00 0.00 0.00 76 1015.2
20260902101600 78 0 0.0 0.0 0.00 0.00 0.00 76 1015.1
20260902100122 78 0 0.0 0.0 0.00 0.00 0.00 77 1015.2
20260902094603 78 0 0.0 0.0 0.00 0.00 0.00 74 1015.1
20260902093102 79 0 0.0 0.0 0.00 0.00 0.00 73 1015.1
20260902091608 79 0 0.0 0.0 0.00 0.00 0.00 73 1015.2
20260902090111 79 0 0.0 0.0 0.00 0.00 0.00 75 1015.3
20260902084601 80 0 0.0 0.0 0.00 0.00 0.00 73 1015.2
20260902083058 80 0 0.0 0.0 0.00 0.00 0.00 71 1015.2
20260902081558 80 0 0.0 0.0 0.00 0.00 0.00 69 1015.3
20260902080113 81 0 0.0 0.0 0.00 0.00 0.00 69 1015.3
20260902074618 81 0 0.0 0.0 0.00 0.00 0.00 68 1015.4
20260902073110 82 0 0.0 0.0 0.00 0.00 0.00 68 1015.5
20260902071630 82 171 0.0 2.0 0.00 0.00 0.00 67 1015.5
20260902064611 83 0 0.0 0.0 0.00 0.00 0.00 65 1015.6
20260902063102 83 0 0.0 1.0 0.00 0.00 0.00 65 1015.5
20260902061611 84 0 0.0 3.0 0.00 0.00 0.00 64 1015.5
20260902060108 84 0 0.0 4.0 0.00 0.00 0.00 63 1015.3
20260902054601 84 0 0.0 5.0 0.00 0.00 0.00 62 1015.1
20260902053102 85 0 0.0 6.0 0.00 0.00 0.00 61 1014.9
20260902051559 86 139 0.0 8.0 0.00 0.00 0.00 59 1014.9
20260902050114 86 98 1.0 8.0 0.00 0.00 0.00 57 1015.0
20260902044600 87 0 1.0 7.0 0.00 0.00 0.00 55 1014.9
20260902043101 87 0 0.0 0.0 0.00 0.00 0.00 56 1014.9
20260902041604 87 0 0.0 0.0 0.00 0.00 0.00 54 1014.5
20260902040106 88 0 0.0 0.0 0.00 0.00 0.00 53 1014.5
20260902034558 88 0 0.0 2.0 0.00 0.00 0.00 52 1014.4
20260902033059 89 0 0.0 3.0 0.00 0.00 0.00 51 1014.4
20260902031600 89 0 0.0 2.0 0.00 0.00 0.00 50 1014.3
20260902024602 90 0 0.0 3.0 0.00 0.00 0.00 48 1013.8
20260902023109 91 0 0.0 6.0 0.00 0.00 0.00 47 1013.6
20260902021605 91 0 0.0 8.0 0.00 0.00 0.00 47 1013.4
20260902020059 91 0 0.0 4.0 0.00 0.00 0.00 47 1013.3
20260902014600 91 0 0.0 2.0 0.00 0.00 0.00 46 1013.1
20260902013055 92 0 0.0 3.0 0.00 0.00 0.00 45 1013.1
20260902011605 93 0 0.0 8.0 0.00 0.00 0.00 44 1013.0
20260902010121 93 0 0.0 8.0 0.00 0.00 0.00 43 1012.9
20260902004605 94 109 0.0 8.0 0.00 0.00 0.00 43 1012.9
20260902003106 95 0 0.0 8.0 0.00 0.00 0.00 42 1012.9
20260902001600 95 0 0.0 4.0 0.00 0.00 0.00 41 1013.0
20260902000100 96 0 0.0 3.0 0.00 0.00 0.00 40 1013.1
20260901234600 96 0 1.0 7.0 0.00 0.00 0.00 39 1013.1
20260901233105 97 98 0.0 7.0 0.00 0.00 0.00 39 1013.2
20260901231600 98 0 0.0 3.0 0.00 0.00 0.00 39 1013.1
20260901230103 98 0 0.0 8.0 0.00 0.00 0.00 37 1013.2